Parțial înnorat
Parțial înnorat
Ceață/nori Stratus de joasă altitudine
Ceață/nori Stratus de joasă altitudine
Ceață/nori Stratus de joasă altitudine
Înnorat
Parțial înnorat
Parțial înnorat
Senin, cu puțini nori joși
(°C)
18°
18°
18°
18°
18°
18°
18°
18°
19°
19°
19°
19°
20°
20°
21°
21°
22°
22°
(°C)
20°
20°
20°
20°
20°
21°
22°
23°
23°
VNV
NV
NV
NNV
NNV
NNV
NV
VNV
VNV
(km/h)
3-8
3-7
3-7
3-7
3-6
2-6
2-7
4-9
6-12
(mm)
0
0
0
0
0
0
0
0
0
(%)
0
0
0
0
0
0
0
0
0

Elevația soarelui

/ -28.4°
sun-icon
UV 11
05:40
20:01
Luna gibboasă în scădere (188°)
21:15
05:57

METAR pentru San Diego (KSAN)

Ora Condiții Temperatură/
Punctul de rouă
Vânt Vizibilitate Vremea Nori Presiune Schimbă Brut
MVFR 18.9°C / 16.7°C variable 0kt >10km - Broken Clouds 1000ft 1009 - KSAN 220851Z 00000KT 9SM BKN010 19/17 A2981 RMK AO2 SLP094 T01890167 58002 $
MVFR 18.9°C / 16.7°C variable 0kt >10km - Broken Clouds 1000ft - KSAN 220820Z 00000KT 9SM BKN010 19/17 A2981 RMK AO2 T01890167 $
IFR 18.3°C / 16.7°C variable 0kt >10km - Broken Clouds 800ft
Broken Clouds 1200ft
1009 - KSAN 220751Z 00000KT 9SM BKN008 BKN012 18/17 A2981 RMK AO2 SLP095 T01830167 402280178 $
IFR 18.3°C / 16.1°C 300º 3kt >10km - Broken Clouds 800ft
Broken Clouds 1200ft
- KSAN 220728Z 30003KT 9SM BKN008 BKN012 18/16 A2982 RMK AO2 T01830161 $
MVFR 18.3°C / 16.1°C variable 0kt >10km - Scattered Clouds 800ft
Broken Clouds 1200ft
- KSAN 220711Z 00000KT 9SM SCT008 BKN012 18/16 A2982 RMK AO2 T01830161 $
VFR 17.8°C / 16.1°C 300º 4kt >10km - Few Clouds 800ft
Scattered Clouds 1200ft
1009 - KSAN 220651Z 30004KT 9SM FEW008 SCT012 18/16 A2982 RMK AO2 SLP096 T01780161 $
VFR 18.3°C / 16.1°C 5kt >10km - Scattered Clouds 1000ft 1009 - KSAN 220551Z VRB05KT 9SM SCT010 18/16 A2981 RMK AO2 SLP094 T01830161 10211 20183 51014 $
VFR 18.9°C / 16.1°C 280º 4kt >10km - Scattered Clouds 1000ft 1009 - KSAN 220451Z 28004KT 9SM SCT010 19/16 A2980 RMK AO2 SLP091 T01890161 $
VFR 18.9°C / 16.1°C 300º 5kt >10km - Scattered Clouds 1000ft 1008 - KSAN 220351Z 30005KT 10SM SCT010 19/16 A2978 RMK AO2 SLP085 T01890161 $
VFR 18.9°C / 15.6°C 290º 6kt >10km - Few Clouds 1400ft 1008 - KSAN 220251Z 29006KT 10SM FEW014 19/16 A2977 RMK AO2 SLP081 T01890156 53007 $
VFR 20°C / 15.6°C 300º 9kt >10km - Few Clouds 1400ft 1007 - KSAN 220151Z 30009KT 10SM FEW014 20/16 A2976 RMK AO2 SLP076 T02000156 $
VFR 20.6°C / 15.6°C 290º 10kt >10km - Few Clouds 1400ft 1007 - KSAN 220051Z 29010KT 10SM FEW014 21/16 A2974 RMK AO2 SLP071 T02060156 $
VFR 21.1°C / 15.6°C 300º 7kt >10km - Few Clouds 1400ft 1007 - KSAN 212351Z 30007KT 10SM FEW014 21/16 A2975 RMK AO2 SLP073 T02110156 10228 20206 56013
VFR 21.7°C / 15.6°C 300º 9kt >10km - Few Clouds 1400ft 1007 - KSAN 212251Z 30009KT 10SM FEW014 22/16 A2976 RMK AO2 SLP078 T02170156
VFR 22.2°C / 15.6°C 290º 9kt >10km - Few Clouds 1400ft 1008 - KSAN 212151Z 29009KT 10SM FEW014 22/16 A2977 RMK AO2 SLP081 T02220156 $
VFR 21.7°C / 15.6°C 290º 7kt >10km - Few Clouds 1400ft 1008 - KSAN 212051Z 29007KT 10SM FEW014 22/16 A2979 RMK AO2 SLP086 T02170156 58001 $
VFR 21.7°C / 15.6°C 280º 8kt >10km - Few Clouds 1300ft 1008 - KSAN 211951Z 28008KT 10SM FEW013 22/16 A2979 RMK AO2 SLP088 T02170156 $
VFR 21.1°C / 15.6°C 270º 9kt >10km - Few Clouds 1400ft 1008 - KSAN 211851Z 27009KT 10SM FEW014 21/16 A2979 RMK AO2 SLP089 T02110156 $
VFR 21.1°C / 15.6°C 290º 8kt >10km - Few Clouds 1400ft 1008 - KSAN 211751Z 29008KT 10SM FEW014 21/16 A2979 RMK AO2 SLP087 T02110156 10217 20183 53002 $
VFR 20.6°C / 15.6°C 290º variable 270º to 340º 7kt >10km - Scattered Clouds 1400ft 1008 - KSAN 211651Z 29007KT 270V340 10SM SCT014 21/16 A2979 RMK AO2 SLP086 T02060156 $
VFR 20.6°C / 15.6°C 280º variable 260º to 330º 8kt >10km - Scattered Clouds 1400ft - KSAN 211634Z 28008KT 260V330 10SM SCT014 21/16 A2978 RMK AO2 T02060156 $
MVFR 20°C / 15.6°C 330º 6kt >10km - Broken Clouds 1400ft 1008 - KSAN 211551Z 33006KT 9SM BKN014 20/16 A2979 RMK AO2 SLP087 T02000156 $
MVFR 19.4°C / 15°C 4kt >10km - Broken Clouds 1300ft 1008 - KSAN 211451Z VRB04KT 9SM BKN013 19/15 A2979 RMK AO2 SLP086 T01940150 51004
MVFR 18.9°C / 15°C variable 0kt >10km - Broken Clouds 1300ft 1008 - KSAN 211351Z 00000KT 10SM BKN013 19/15 A2978 RMK AO2 SLP085 T01890150 $

MVFR

18.9°C / 16.7°C

[Mai mult]
Vânt variable 0kt
Vizibilitate >10km
Vremea -
Nori Broken Clouds 1000ft
Presiune 1009
Schimbă -
Brut KSAN 220851Z 00000KT 9SM BKN010 19/17 A2981 RMK AO2 SLP094 T01890167 58002 $

MVFR

18.9°C / 16.7°C

[Mai mult]
Vânt variable 0kt
Vizibilitate >10km
Vremea -
Nori Broken Clouds 1000ft
Presiune
Schimbă -
Brut KSAN 220820Z 00000KT 9SM BKN010 19/17 A2981 RMK AO2 T01890167 $

IFR

18.3°C / 16.7°C

[Mai mult]
Vânt variable 0kt
Vizibilitate >10km
Vremea -
Nori Broken Clouds 800ft
Broken Clouds 1200ft
Presiune 1009
Schimbă -
Brut KSAN 220751Z 00000KT 9SM BKN008 BKN012 18/17 A2981 RMK AO2 SLP095 T01830167 402280178 $

IFR

18.3°C / 16.1°C

[Mai mult]
Vânt 300º 3kt
Vizibilitate >10km
Vremea -
Nori Broken Clouds 800ft
Broken Clouds 1200ft
Presiune
Schimbă -
Brut KSAN 220728Z 30003KT 9SM BKN008 BKN012 18/16 A2982 RMK AO2 T01830161 $

MVFR

18.3°C / 16.1°C

[Mai mult]
Vânt variable 0kt
Vizibilitate >10km
Vremea -
Nori Scattered Clouds 800ft
Broken Clouds 1200ft
Presiune
Schimbă -
Brut KSAN 220711Z 00000KT 9SM SCT008 BKN012 18/16 A2982 RMK AO2 T01830161 $

VFR

17.8°C / 16.1°C

[Mai mult]
Vânt 300º 4kt
Vizibilitate >10km
Vremea -
Nori Few Clouds 800ft
Scattered Clouds 1200ft
Presiune 1009
Schimbă -
Brut KSAN 220651Z 30004KT 9SM FEW008 SCT012 18/16 A2982 RMK AO2 SLP096 T01780161 $

VFR

18.3°C / 16.1°C

[Mai mult]
Vânt 5kt
Vizibilitate >10km
Vremea -
Nori Scattered Clouds 1000ft
Presiune 1009
Schimbă -
Brut KSAN 220551Z VRB05KT 9SM SCT010 18/16 A2981 RMK AO2 SLP094 T01830161 10211 20183 51014 $

VFR

18.9°C / 16.1°C

[Mai mult]
Vânt 280º 4kt
Vizibilitate >10km
Vremea -
Nori Scattered Clouds 1000ft
Presiune 1009
Schimbă -
Brut KSAN 220451Z 28004KT 9SM SCT010 19/16 A2980 RMK AO2 SLP091 T01890161 $

VFR

18.9°C / 16.1°C

[Mai mult]
Vânt 300º 5kt
Vizibilitate >10km
Vremea -
Nori Scattered Clouds 1000ft
Presiune 1008
Schimbă -
Brut KSAN 220351Z 30005KT 10SM SCT010 19/16 A2978 RMK AO2 SLP085 T01890161 $

VFR

18.9°C / 15.6°C

[Mai mult]
Vânt 290º 6kt
Vizibilitate >10km
Vremea -
Nori Few Clouds 1400ft
Presiune 1008
Schimbă -
Brut KSAN 220251Z 29006KT 10SM FEW014 19/16 A2977 RMK AO2 SLP081 T01890156 53007 $

VFR

20°C / 15.6°C

[Mai mult]
Vânt 300º 9kt
Vizibilitate >10km
Vremea -
Nori Few Clouds 1400ft
Presiune 1007
Schimbă -
Brut KSAN 220151Z 30009KT 10SM FEW014 20/16 A2976 RMK AO2 SLP076 T02000156 $

VFR

20.6°C / 15.6°C

[Mai mult]
Vânt 290º 10kt
Vizibilitate >10km
Vremea -
Nori Few Clouds 1400ft
Presiune 1007
Schimbă -
Brut KSAN 220051Z 29010KT 10SM FEW014 21/16 A2974 RMK AO2 SLP071 T02060156 $

VFR

21.1°C / 15.6°C

[Mai mult]
Vânt 300º 7kt
Vizibilitate >10km
Vremea -
Nori Few Clouds 1400ft
Presiune 1007
Schimbă -
Brut KSAN 212351Z 30007KT 10SM FEW014 21/16 A2975 RMK AO2 SLP073 T02110156 10228 20206 56013

VFR

21.7°C / 15.6°C

[Mai mult]
Vânt 300º 9kt
Vizibilitate >10km
Vremea -
Nori Few Clouds 1400ft
Presiune 1007
Schimbă -
Brut KSAN 212251Z 30009KT 10SM FEW014 22/16 A2976 RMK AO2 SLP078 T02170156

VFR

22.2°C / 15.6°C

[Mai mult]
Vânt 290º 9kt
Vizibilitate >10km
Vremea -
Nori Few Clouds 1400ft
Presiune 1008
Schimbă -
Brut KSAN 212151Z 29009KT 10SM FEW014 22/16 A2977 RMK AO2 SLP081 T02220156 $

VFR

21.7°C / 15.6°C

[Mai mult]
Vânt 290º 7kt
Vizibilitate >10km
Vremea -
Nori Few Clouds 1400ft
Presiune 1008
Schimbă -
Brut KSAN 212051Z 29007KT 10SM FEW014 22/16 A2979 RMK AO2 SLP086 T02170156 58001 $

VFR

21.7°C / 15.6°C

[Mai mult]
Vânt 280º 8kt
Vizibilitate >10km
Vremea -
Nori Few Clouds 1300ft
Presiune 1008
Schimbă -
Brut KSAN 211951Z 28008KT 10SM FEW013 22/16 A2979 RMK AO2 SLP088 T02170156 $

VFR

21.1°C / 15.6°C

[Mai mult]
Vânt 270º 9kt
Vizibilitate >10km
Vremea -
Nori Few Clouds 1400ft
Presiune 1008
Schimbă -
Brut KSAN 211851Z 27009KT 10SM FEW014 21/16 A2979 RMK AO2 SLP089 T02110156 $

VFR

21.1°C / 15.6°C

[Mai mult]
Vânt 290º 8kt
Vizibilitate >10km
Vremea -
Nori Few Clouds 1400ft
Presiune 1008
Schimbă -
Brut KSAN 211751Z 29008KT 10SM FEW014 21/16 A2979 RMK AO2 SLP087 T02110156 10217 20183 53002 $

VFR

20.6°C / 15.6°C

[Mai mult]
Vânt 290º variable 270º to 340º 7kt
Vizibilitate >10km
Vremea -
Nori Scattered Clouds 1400ft
Presiune 1008
Schimbă -
Brut KSAN 211651Z 29007KT 270V340 10SM SCT014 21/16 A2979 RMK AO2 SLP086 T02060156 $

VFR

20.6°C / 15.6°C

[Mai mult]
Vânt 280º variable 260º to 330º 8kt
Vizibilitate >10km
Vremea -
Nori Scattered Clouds 1400ft
Presiune
Schimbă -
Brut KSAN 211634Z 28008KT 260V330 10SM SCT014 21/16 A2978 RMK AO2 T02060156 $

MVFR

20°C / 15.6°C

[Mai mult]
Vânt 330º 6kt
Vizibilitate >10km
Vremea -
Nori Broken Clouds 1400ft
Presiune 1008
Schimbă -
Brut KSAN 211551Z 33006KT 9SM BKN014 20/16 A2979 RMK AO2 SLP087 T02000156 $

MVFR

19.4°C / 15°C

[Mai mult]
Vânt 4kt
Vizibilitate >10km
Vremea -
Nori Broken Clouds 1300ft
Presiune 1008
Schimbă -
Brut KSAN 211451Z VRB04KT 9SM BKN013 19/15 A2979 RMK AO2 SLP086 T01940150 51004

MVFR

18.9°C / 15°C

[Mai mult]
Vânt variable 0kt
Vizibilitate >10km
Vremea -
Nori Broken Clouds 1300ft
Presiune 1008
Schimbă -
Brut KSAN 211351Z 00000KT 10SM BKN013 19/15 A2978 RMK AO2 SLP085 T01890150 $

TAF pentru San Diego (KSAN)

From till


From till Wind 4kt. Visibility 9700m. Broken Clouds 1000ft.
From till Wind 4kt. Visibility 9700m. Scattered Clouds 1200ft.
From till Wind 290º 11kt. Visibility 9700m. Sky Clear.

Brut: KSAN 220849Z 2209/2312 VRB04KT P6SM BKN010 FM221600 VRB04KT P6SM SCT012 FM221900 29011KT P6SM SKC

rainNOW: Ploaie nowcasting pentru San Diego și împrejurimi (pe o rază de 25 km)

0.0 mm
0.0 mm
0.0 mm
0.0 mm
0.0 mm
0.0 mm
0.0 mm
0.0 mm
0.0 mm
0.0 mm
0.0 mm
0.0 mm

Radar și nowcast de precipitații pentru San Diego

Burniță
Ușoară
Moderat
Greu
Foarte greu
Grindină

Markerul de locație este plasat în San Diego. Această animație arată radarul de precipitații pentru intervalul de timp selectat, precum și o prognoză 1h. Crucile portocalii indică fulgerele. Date furnizate de nowcast.de (disponibile în SUA, Europa, Australia). Ploaia sau ninsoarea slabă ar putea fi invizibilă pentru radar. Intensitatea precipitațiilor este codificată prin culori, de la turcoaz la roșu.

Imagini satelitare actuale pentru: San Diego, S.U.A.

Markerul cu locaţia este poziţionat pe San Diego. [Mai mult]

Imaginea satelitară în timp real combină lumina vizibilă din timpul zilei cu radiația cu infraroșu din timpul nopții. Pe timp de noapte, imaginea nu este întunecată, deoarece radiația cu infraroșu poate detecta diferențele de temperatură. Din păcate, norii joși și ceața sunt greu de recunoscut față de temperatura de la sol, din această cauză putând fi invizibili pe timp de noapte. Imaginile satelitare Meteosat pentru Europa sunt actualizate în timp real din 5 în 5 minute. Imaginile GOES-16/GOES-17 (America de Nord și de Sud) și Himawari (Asia) sunt actualizate din 10 în 10 minute.

Precipitațiile sunt estimate pe baza radarelor și a sateliților. Estimările de precipitații de la sateliți sunt mai puțin precise pe timp de noapte decât pe timp de zi.

© 2024 meteoblue, NOAA Satellites GOES-16 and EUMETSAT. Datele despre fulgere furnizate de către nowcast.

Mergi sus
×
Bună ziua,
se pare că folosiți un blocant de reclame.

Publicitatea este esențială pentru a menține site-ul nostru gratuit cu detalii și acuratețe unice.

Vă rugăm să whitelist www.meteoblue.com în ad blocker-ul dvs. sau luați în considerare cumpărarea unuia dintre produsele noastre:

Aveți deja un abonament?
Atunci vă rugăm login.